Weather in Luzhniki

Russia / Moscow Oblast     54°50′36″N   38°05′45″E
temp.,
°C
wind,
m/s
gust,
m/s
humid.,
%
clouds,
%
prec.,
mm/h
press.,
hPa
HPBL,
m
18 january, mon
mon1800:00−25ne1110098 0.0 101920
03:00−25n1210071 0.0 102020
06:00−25n2210091 0.0 102020
09:00−24ne129994 0.0 102120
12:00−20ne1194100 0.0 1021147
15:00−18ne2393100 0.0 1020191
18:00−20ne1297100 0.0 102020
21:00−19nne1196100 0.0 102034
19 january, tue
tue1900:00−18ne1195100 0.0 101920
03:00−18nnw1194100 0.0 101920
06:00−18nnw1198100 0.3 101938
09:00−18nnw1197100 0.6 101920
12:00−16w1192100 0.2 1019213
15:00−15nw2394100 0.4 1018252
18:00−16wnw2297100 0.2 101834
21:00−16wnw2296100 0.4 101949
20 january, wed
wed2000:00−16wnw2496100 0.1 101895
03:00−16wnw3596100 0.3 1019137
06:00−16wnw359790 0.1 1020112
09:00−18wnw339789 0.1 102162
12:00−16w349578 0.0 1021165
15:00−15w349569 0.0 1022172
18:00−18wsw34964 0.0 102332
21:00−19wsw34952 0.0 102442
21 january, thu
thu2100:00−19sw34920 0.0 102446
03:00−19ssw459118 0.0 102382
06:00−18ssw5109130 0.0 1022186
09:00−15ssw7148465 0.0 1020278
12:00−11ssw81791100 0.0 1017443
15:00−8sw91693100 0.2 1014560
18:00−7sw81591100 0.4 1013602
21:00−5sw71590100 0.5 1012506
22 january, fri
fri2200:00−1wsw8169198 0.0 1011571
03:00−1wsw8159299 0.0 1010602
06:000wsw81491100 0.0 1010628
09:00+1wsw71493100 0.0 1011637
12:00+1wsw71397100 0.0 1012514
15:00+1sw61297100 0.0 1011447
18:00+1sw71194100 0.0 1011446
21:000sw71295100 0.0 1011480